Hammond, LA

4:02 PM CST on December 15, 2019 (GMT -0600)
Hammond Municipal

Weather History for KHDC - October, 2019

Change the Weather History Date:

Saturday, October 19, 2019

  Actual Average (KMSY) Record (KMSY)
Temperature  
Mean Temperature 68 °F -  
Max Temperature 80 °F 77 °F 91 °F (2016)
Min Temperature 55 °F 57 °F 44 °F (1967)
Cooling Degree Days 2    
Growing Degree Days 18 (Base 50)    
Moisture  
Dew Point 59 °F    
Average Humidity 80    
Maximum Humidity 94    
Minimum Humidity 51    
Precipitation  
Precipitation 0.12 in - - ()
Sea Level Pressure  
Sea Level Pressure 29.78 in    
Wind  
Wind Speed 2 mph (North)    
Max Wind Speed 9 mph    
Max Gust Speed -    
Visibility 10 miles    
Events      
Averages and records for this station are not official NWS values.
T = Trace of Precipitation, MM = Missing Value Source: NWS Daily Summary

Daily Weather History Graph

Daily Weather History Graph

Search for Another Location

Airport or City:

Astronomy

Oct. 19, 2019 Rise Set
Actual Time 7:06 AM CDT 6:26 PM CDT
Civil Twilight 6:42 AM CDT 6:50 PM CDT
Nautical Twilight 6:14 AM CDT 7:18 PM CDT
Astronomical Twilight 5:46 AM CDT 7:46 PM CDT
Moon 10:52 PM CDT (10/19) 12:22 PM CDT (10/19)
Length of Visible Light 12h 08m
Length of Day
11h 19m
Waning Gibbous, 69% of the Moon is Illuminated
Oct 19
Waning Gibbous
Oct 21
Last Quarter
Oct 27
New
Nov 4
First Quarter
Nov 12
Full

Hourly Weather History & Observations

Time (CDT) Temp. Heat Index Dew Point Humidity Pressure Visibility Wind Dir Wind Speed Gust Speed Precip Events Conditions
12:15 AM 59.0 °F - 51.8 °F 77% 29.79 in 10.0 mi Calm Calm - N/A   Overcast
12:35 AM 59.0 °F - 51.8 °F 77% 29.78 in 10.0 mi Calm Calm - N/A   Scattered Clouds
12:55 AM 59.0 °F - 51.8 °F 77% 29.78 in 10.0 mi NNE 3.5 mph - N/A   Mostly Cloudy
1:15 AM 59.0 °F - 51.8 °F 77% 29.77 in 10.0 mi North 4.6 mph - N/A   Overcast
1:35 AM 59.0 °F - 51.8 °F 77% 29.77 in 10.0 mi NNE 4.6 mph - N/A   Overcast
1:55 AM 59.0 °F - 53.6 °F 82% 29.77 in 10.0 mi Calm Calm - N/A   Mostly Cloudy
2:15 AM 59.0 °F - 53.6 °F 82% 29.76 in 10.0 mi NNE 3.5 mph - 0.01 in   Scattered Clouds
2:35 AM 57.2 °F - 53.6 °F 88% 29.76 in 10.0 mi Calm Calm - 0.01 in   Clear
2:55 AM 57.2 °F - 53.6 °F 88% 29.75 in 10.0 mi North 4.6 mph - 0.01 in   Clear
3:15 AM 57.2 °F - 53.6 °F 88% 29.75 in 10.0 mi NNE 3.5 mph - N/A   Clear
3:35 AM 57.2 °F - 53.6 °F 88% 29.74 in 10.0 mi North 4.6 mph - N/A   Clear
3:55 AM 57.2 °F - 53.6 °F 88% 29.74 in 10.0 mi North 3.5 mph - N/A   Clear
4:15 AM 55.4 °F - 53.6 °F 94% 29.75 in 10.0 mi North 3.5 mph - N/A   Clear
4:35 AM 55.4 °F - 53.6 °F 94% 29.75 in 10.0 mi NNW 3.5 mph - N/A   Clear
4:55 AM 55.4 °F - 53.6 °F 94% 29.76 in 10.0 mi Calm Calm - 0.01 in   Clear
5:15 AM 55.4 °F - 53.6 °F 94% 29.77 in 10.0 mi WNW 4.6 mph - N/A   Scattered Clouds
5:35 AM 55.4 °F - 53.6 °F 94% 29.77 in 10.0 mi NW 4.6 mph - N/A   Overcast
5:55 AM 57.2 °F - 53.6 °F 88% 29.77 in 10.0 mi NNW 3.5 mph - N/A   Overcast
6:15 AM 57.2 °F - 53.6 °F 88% 29.77 in 10.0 mi Calm Calm - N/A   Overcast
6:35 AM 55.4 °F - 53.6 °F 94% 29.77 in 10.0 mi Calm Calm - N/A   Mostly Cloudy
6:55 AM 55.4 °F - 53.6 °F 94% 29.77 in 10.0 mi Calm Calm - N/A   Scattered Clouds
7:15 AM 57.2 °F - 53.6 °F 88% 29.77 in 10.0 mi Calm Calm - N/A   Mostly Cloudy
7:35 AM 59.0 °F - 55.4 °F 88% 29.78 in 10.0 mi NW 3.5 mph - N/A   Overcast
7:55 AM 59.0 °F - 55.4 °F 88% 29.78 in 10.0 mi Calm Calm - N/A   Overcast
8:15 AM 59.0 °F - 55.4 °F 88% 29.78 in 10.0 mi Calm Calm - N/A   Overcast
8:35 AM 60.8 °F - 55.4 °F 82% 29.78 in 10.0 mi Calm Calm - 0.01 in   Overcast
8:55 AM 62.6 °F - 55.4 °F 77% 29.78 in 10.0 mi Calm Calm - 0.01 in   Mostly Cloudy
9:15 AM 64.4 °F - 57.2 °F 77% 29.79 in 10.0 mi North 3.5 mph - N/A   Scattered Clouds
9:35 AM 66.2 °F - 59.0 °F 78% 29.81 in 10.0 mi NNW 4.6 mph - N/A   Mostly Cloudy
9:55 AM 68.0 °F - 59.0 °F 73% 29.81 in 10.0 mi North 4.6 mph - N/A   Mostly Cloudy
10:15 AM 68.0 °F - 59.0 °F 73% 29.81 in 10.0 mi Calm Calm - 0.01 in   Overcast
10:35 AM 69.8 °F - 60.8 °F 73% 29.81 in 10.0 mi NNW 4.6 mph - 0.01 in   Overcast
10:55 AM 69.8 °F - 60.8 °F 73% 29.81 in 10.0 mi NNW 3.5 mph - 0.01 in   Overcast
11:15 AM 71.6 °F - 60.8 °F 69% 29.81 in 10.0 mi North 4.6 mph - N/A   Overcast
11:35 AM 71.6 °F - 62.6 °F 73% 29.81 in 10.0 mi North 3.5 mph - N/A   Overcast
11:55 AM 71.6 °F - 62.6 °F 73% 29.80 in 10.0 mi NW 6.9 mph - 0.01 in   Overcast
12:15 PM 73.4 °F - 62.6 °F 69% 29.80 in 10.0 mi North 3.5 mph - N/A   Overcast
12:35 PM 73.4 °F - 64.4 °F 73% 29.79 in 10.0 mi North 5.8 mph - N/A   Overcast
12:55 PM 75.2 °F - 64.4 °F 69% 29.78 in 10.0 mi North 6.9 mph - 0.01 in   Overcast
1:15 PM 77.0 °F - 64.4 °F 65% 29.77 in 10.0 mi NE 5.8 mph - N/A   Mostly Cloudy
1:35 PM 77.0 °F - 64.4 °F 65% 29.76 in 10.0 mi North 9.2 mph - N/A   Mostly Cloudy
1:55 PM 77.0 °F - 64.4 °F 65% 29.75 in 10.0 mi NNW 5.8 mph - N/A   Mostly Cloudy
2:35 PM 80.6 °F 82.3 °F 64.4 °F 58% 29.74 in 10.0 mi North 5.8 mph - 0.01 in   Mostly Cloudy
2:55 PM 80.6 °F 82.3 °F 64.4 °F 58% 29.73 in 10.0 mi NNE 6.9 mph - 0.01 in   Scattered Clouds
3:15 PM 80.6 °F 81.8 °F 62.6 °F 54% 29.73 in 10.0 mi NNW 5.8 mph - 0.01 in   Clear
3:35 PM 80.6 °F 81.8 °F 62.6 °F 54% 29.73 in 10.0 mi North 6.9 mph - 0.01 in   Clear
3:55 PM 80.6 °F 81.8 °F 62.6 °F 54% 29.74 in 10.0 mi NW 5.8 mph - 0.01 in   Clear
4:15 PM 80.6 °F 81.8 °F 62.6 °F 54% 29.73 in 10.0 mi NW 4.6 mph - N/A   Clear
4:35 PM 80.6 °F 81.5 °F 60.8 °F 51% 29.73 in 10.0 mi WNW 6.9 mph - 0.01 in   Clear
4:55 PM 80.6 °F 81.8 °F 62.6 °F 54% 29.73 in 10.0 mi NNW 3.5 mph - 0.01 in   Clear
5:35 PM 80.6 °F 81.5 °F 60.8 °F 51% 29.73 in 10.0 mi Calm Calm - 0.01 in   Clear
6:15 PM 73.4 °F - 66.2 °F 78% 29.74 in 10.0 mi Calm Calm - N/A   Clear
6:35 PM 71.6 °F - 64.4 °F 78% 29.75 in 10.0 mi Calm Calm - N/A   Clear
6:55 PM 71.6 °F - 64.4 °F 78% 29.76 in 10.0 mi Calm Calm - N/A   Clear
7:15 PM 69.8 °F - 64.4 °F 83% 29.77 in 10.0 mi Calm Calm - N/A   Clear
7:35 PM 68.0 °F - 62.6 °F 83% 29.77 in 10.0 mi Calm Calm - 0.01 in   Clear
7:55 PM 68.0 °F - 62.6 °F 83% 29.78 in 10.0 mi Calm Calm - 0.01 in   Clear
8:15 PM 66.2 °F - 62.6 °F 88% 29.79 in 10.0 mi Calm Calm - N/A   Clear
8:35 PM 64.4 °F - 62.6 °F 94% 29.79 in 10.0 mi Calm Calm - N/A   Clear
8:55 PM 64.4 °F - 62.6 °F 94% 29.79 in 10.0 mi Calm Calm - N/A   Clear
9:15 PM 64.4 °F - 62.6 °F 94% 29.80 in 10.0 mi Calm Calm - N/A   Clear
9:35 PM 64.4 °F - 62.6 °F 94% 29.81 in 10.0 mi Calm Calm - 0.01 in   Clear
9:55 PM 64.4 °F - 62.6 °F 94% 29.81 in 10.0 mi Calm Calm - 0.01 in   Clear
10:15 PM 62.6 °F - 60.8 °F 94% 29.81 in 10.0 mi Calm Calm - N/A   Clear
10:35 PM 62.6 °F - 60.8 °F 94% 29.82 in 10.0 mi Calm Calm - N/A   Clear
10:55 PM 62.6 °F - 60.8 °F 94% 29.82 in 10.0 mi Calm Calm - N/A   Clear
11:15 PM 62.6 °F - 60.8 °F 94% 29.82 in 10.0 mi Calm Calm - N/A   Clear
11:35 PM 60.8 °F - 59.0 °F 94% 29.82 in 10.0 mi Calm Calm - N/A   Clear
11:55 PM 60.8 °F - 59.0 °F 94% 29.83 in 10.0 mi Calm Calm - N/A   Clear